Date String (YYYY-MM-DD hh:mm:ss) UTC,Instrument flags,absolute air pressure of the measurement (hPa),sample flow rate (lpm),inlet stack bypass flow (lpm),air temperature of the measurement (°C),ambient temperature measured by the external sensor (°C),aerosol sample conditioner tube jacket temperature (°C),OPC LED temperature (°C),internal box temperature (°C),relative humidity of the measurement (%),span deviation,mass concentration of particles derived from Lorenz-Mie calculation of OPC scattering (μg/m³),mass concentration of particles derived from Lorenz-Mie calculation of OPC scattering (μg/m³),mass concentration of particles derived from Lorenz-Mie calculation of OPC scattering (μg/m³)
DateTimeUTC,F1_M11,P_M11,Q1_M11,Q2_M11,T1_M11,T2_M11,T3_M11,T4_M11,T5_M11,U1_M11,ZSPAN_M11,X0_M11,X2_M11,X1_M11
2024-06-07 23:00:00,SystemResetWarning,0825.1,5.01,000.00,028.7,027.8,000.0,037.0,030.5,017.0,0000.0,0008.18,0003.74,0003.10
2024-06-07 23:01:00,SystemResetWarning,0825.0,5.00,000.00,028.8,028.2,000.0,037.0,030.6,015.8,0000.0,0008.51,0003.75,0003.08
2024-06-07 23:02:00,SystemResetWarning,0825.1,5.00,000.00,028.9,028.4,000.0,037.0,030.8,016.6,0000.0,0009.06,0003.73,0003.07
2024-06-07 23:03:00,SystemResetWarning,0825.1,5.01,000.00,029.0,028.7,000.0,037.1,030.9,016.9,0000.0,0009.64,0003.70,0003.08
2024-06-07 23:04:00,SystemResetWarning,0825.1,4.98,000.00,029.0,028.2,000.0,037.1,030.6,017.0,0000.0,0009.70,0003.71,0003.09
2024-06-07 23:05:00,SystemResetWarning,0824.9,5.00,000.00,028.7,026.1,000.0,037.2,029.7,017.0,0000.0,0009.78,0003.74,0003.09
2024-06-07 23:06:00,SystemResetWarning,0825.0,5.02,000.00,028.5,025.6,000.0,037.2,029.4,016.4,0000.0,0009.85,0003.76,0003.07
2024-06-07 23:07:00,SystemResetWarning,0824.9,4.99,000.00,028.4,026.3,000.0,037.1,029.7,017.0,0000.0,0009.95,0003.75,0003.08
2024-06-07 23:08:00,SystemResetWarning,0824.9,5.00,000.00,028.5,026.7,000.0,037.0,029.9,016.7,0000.0,0010.40,0003.75,0003.08
2024-06-07 23:09:00,SystemResetWarning,0824.9,5.00,000.00,028.5,027.2,000.0,037.0,030.2,016.3,0000.0,0009.95,0003.74,0003.09
2024-06-07 23:10:00,SystemResetWarning,0824.9,5.00,000.00,028.6,027.6,000.0,037.0,030.3,016.3,0000.0,0009.67,0003.73,0003.09
2024-06-07 23:11:00,SystemResetWarning,0824.9,4.99,000.00,028.7,028.0,000.0,037.0,030.5,015.9,0000.0,0009.58,0003.69,0003.08
2024-06-07 23:12:00,SystemResetWarning,0824.9,4.99,000.00,028.8,028.3,000.0,037.0,030.7,015.2,0000.0,0009.12,0003.65,0003.05
2024-06-07 23:13:00,SystemResetWarning,0824.9,5.00,000.00,028.9,028.5,000.0,037.0,030.8,015.4,0000.0,0008.74,0003.64,0003.01
2024-06-07 23:14:00,SystemResetWarning,0824.9,5.00,000.00,029.0,028.8,000.0,037.0,030.9,015.5,0000.0,0008.06,0003.61,0002.96
2024-06-07 23:15:00,SystemResetWarning,0824.9,5.00,000.00,029.1,028.9,000.0,037.1,031.0,015.8,0000.0,0008.11,0003.53,0002.90
2024-06-07 23:16:00,SystemResetWarning,0825.0,4.98,000.00,029.0,027.8,000.0,037.2,030.4,015.9,0000.0,0008.40,0003.46,0002.85
2024-06-07 23:17:00,SystemResetWarning,0824.9,5.01,000.00,028.7,025.8,000.0,037.2,029.5,016.6,0000.0,0008.79,0003.39,0002.81
2024-06-07 23:18:00,SystemResetWarning,0824.9,5.01,000.00,028.5,025.9,000.0,037.2,029.4,016.4,0000.0,0008.65,0003.35,0002.77
2024-06-07 23:19:00,SystemResetWarning,0824.9,4.99,000.00,028.5,026.4,000.0,037.1,029.7,016.0,0000.0,0008.19,0003.33,0002.72
2024-06-07 23:20:00,SystemResetWarning,0824.9,5.01,000.00,028.5,026.8,000.0,037.0,030.0,015.7,0000.0,0008.24,0003.32,0002.66
2024-06-07 23:21:00,SystemResetWarning,0825.0,5.00,000.00,028.6,027.3,000.0,037.0,030.2,016.3,0000.0,0008.64,0003.30,0002.62
2024-06-07 23:22:00,SystemResetWarning,0824.9,4.99,000.00,028.7,027.7,000.0,037.0,030.4,016.4,0000.0,0008.57,0003.30,0002.59
2024-06-07 23:23:00,SystemResetWarning,0825.0,5.00,000.00,028.8,028.0,000.0,037.0,030.6,015.3,0000.0,0008.46,0003.30,0002.60
2024-06-07 23:24:00,SystemResetWarning,0825.0,5.00,000.00,028.8,028.3,000.0,037.0,030.7,015.6,0000.0,0008.43,0003.30,0002.64
2024-06-07 23:25:00,SystemResetWarning,0825.1,5.00,000.00,028.9,028.6,000.0,037.0,030.8,016.5,0000.0,0009.09,0003.33,0002.69
2024-06-07 23:26:00,SystemResetWarning,0825.1,5.00,000.00,029.0,028.8,000.0,037.1,031.0,015.9,0000.0,0008.94,0003.38,0002.74
2024-06-07 23:27:00,SystemResetWarning,0825.1,4.98,000.00,029.1,028.1,000.0,037.1,030.5,016.1,0000.0,0008.65,0003.45,0002.80
2024-06-07 23:28:00,SystemResetWarning,0825.0,4.99,000.00,028.7,026.0,000.0,037.2,029.5,016.8,0000.0,0008.92,0003.52,0002.86
2024-06-07 23:29:00,SystemResetWarning,0825.0,5.02,000.00,028.5,025.6,000.0,037.2,029.3,017.3,0000.0,0009.22,0003.59,0002.91
2024-06-07 23:30:00,SystemResetWarning,0824.9,4.99,000.00,028.4,026.2,000.0,037.1,029.6,017.6,0000.0,0010.05,0003.65,0002.97
2024-06-07 23:31:00,SystemResetWarning,0824.9,4.99,000.00,028.5,026.7,000.0,037.0,029.9,017.0,0000.0,0010.80,0003.67,0003.02
2024-06-07 23:32:00,SystemResetWarning,0824.9,5.00,000.00,028.5,027.1,000.0,037.0,030.1,016.4,0000.0,0010.41,0003.68,0003.06
2024-06-07 23:33:00,SystemResetWarning,0825.0,5.02,000.00,028.6,027.5,000.0,037.0,030.3,015.5,0000.0,0010.78,0003.72,0003.07
2024-06-07 23:34:00,SystemResetWarning,0825.0,5.00,000.00,028.7,027.9,000.0,037.0,030.5,016.0,0000.0,0011.48,0003.78,0003.08
2024-06-07 23:35:00,SystemResetWarning,0825.1,5.00,000.00,028.8,028.2,000.0,037.0,030.7,016.3,0000.0,0012.11,0003.80,0003.09
2024-06-07 23:36:00,SystemResetWarning,0825.0,5.00,000.00,028.9,028.4,000.0,037.0,030.8,016.2,0000.0,0011.35,0003.83,0003.10
2024-06-07 23:37:00,SystemResetWarning,0825.0,5.00,000.00,029.0,028.6,000.0,037.0,030.9,016.0,0000.0,0012.10,0003.85,0003.10
2024-06-07 23:38:00,SystemResetWarning,0825.0,5.01,000.00,029.1,028.8,000.0,037.1,031.0,015.9,0000.0,0012.48,0003.83,0003.10
2024-06-07 23:39:00,SystemResetWarning,0825.0,4.98,000.00,029.0,027.6,000.0,037.2,030.3,016.1,0000.0,0012.36,0003.84,0003.11
2024-06-07 23:40:00,SystemResetWarning,0824.9,5.02,000.00,028.6,025.6,000.0,037.2,029.4,016.5,0000.0,0012.06,0003.85,0003.12
2024-06-07 23:41:00,SystemResetWarning,0824.9,5.01,000.00,028.4,025.7,000.0,037.2,029.4,016.7,0000.0,0012.18,0003.87,0003.15
2024-06-07 23:42:00,SystemResetWarning,0824.9,4.99,000.00,028.4,026.3,000.0,037.1,029.7,017.0,0000.0,0012.84,0003.87,0003.17
2024-06-07 23:43:00,SystemResetWarning,0824.9,5.00,000.00,028.5,026.7,000.0,037.0,029.9,017.1,0000.0,0012.99,0003.93,0003.19
2024-06-07 23:44:00,SystemResetWarning,0824.9,5.00,000.00,028.6,027.2,000.0,036.9,030.2,017.4,0000.0,0013.93,0003.96,0003.23
2024-06-07 23:45:00,SystemResetWarning,0824.9,5.01,000.00,028.6,027.6,000.0,036.9,030.3,017.0,0000.0,0014.13,0003.94,0003.27
2024-06-07 23:46:00,SystemResetWarning,0824.9,5.01,000.00,028.7,027.9,000.0,036.9,030.5,016.8,0000.0,0014.19,0003.96,0003.29
2024-06-07 23:47:00,SystemResetWarning,0824.9,5.00,000.00,028.8,028.2,000.0,036.9,030.7,016.8,0000.0,0013.74,0003.97,0003.31
2024-06-07 23:48:00,SystemResetWarning,0824.9,5.00,000.00,028.9,028.4,000.0,037.0,030.8,016.7,0000.0,0013.32,0003.98,0003.33
2024-06-07 23:49:00,SystemResetWarning,0824.9,5.00,000.00,029.0,028.6,000.0,037.0,030.9,016.7,0000.0,0012.69,0004.04,0003.36
2024-06-07 23:50:00,SystemResetWarning,0824.9,5.00,000.00,029.1,028.8,000.0,037.1,031.0,016.9,0000.0,0012.57,0004.05,0003.38
2024-06-07 23:51:00,SystemResetWarning,0824.9,4.98,000.00,029.1,028.1,000.0,037.1,030.6,017.0,0000.0,0012.13,0004.00,0003.37
2024-06-07 23:52:00,SystemResetWarning,0824.9,5.01,000.00,028.8,025.9,000.0,037.2,029.5,017.4,0000.0,0012.05,0004.01,0003.35
2024-06-07 23:53:00,SystemResetWarning,0824.9,5.02,000.00,028.5,025.5,000.0,037.2,029.3,017.6,0000.0,0011.42,0004.05,0003.35
2024-06-07 23:54:00,SystemResetWarning,0824.9,5.00,000.00,028.4,026.1,000.0,037.1,029.6,017.5,0000.0,0011.26,0004.04,0003.33
2024-06-07 23:55:00,SystemResetWarning,0824.9,4.99,000.00,028.5,026.6,000.0,037.0,029.9,017.7,0000.0,0010.81,0004.03,0003.33
2024-06-07 23:56:00,SystemResetWarning,0824.9,5.00,000.00,028.5,027.0,000.0,037.0,030.1,017.7,0000.0,0010.23,0004.02,0003.32
2024-06-07 23:57:00,SystemResetWarning,0824.9,5.01,000.00,028.6,027.4,000.0,036.9,030.3,017.6,0000.0,0009.67,0004.02,0003.31
2024-06-07 23:58:00,SystemResetWarning,0824.9,4.99,000.00,028.7,027.8,000.0,036.9,030.5,017.8,0000.0,0010.51,0004.03,0003.31
2024-06-07 23:59:00,SystemResetWarning,0824.9,4.99,000.00,028.8,028.1,000.0,036.9,030.6,017.5,0000.0,0010.78,0004.02,0003.29
